Location: �terpigny
(49.8910°N, 2.9249°E)
Time: 04:20:19
(UTC+00:00)

Cosmos 332 Rocket - Pass Details

Date: 05 June 2022
Orbit: 681 x 703 km, 74.0° (Epoch: 05 July)

Event Time Altitude Azimuth Distance (km) Brightness Sun altitude
Exits shadow 00:31:45 11° 249° (WSW) 2,057 5.9 -16.9°
Maximum altitude 00:35:39 28° 306° (NW) 1,279 5.4 -16.8°
Drops below altitude 10° 00:39:48 10° 6° (N) 2,138 7.6 -16.6°
Sets 00:42:25 0° 18° (NNE) 3,061 8.9 -16.5°
